EW0199 Weather Reports


Display with metric or nautical units.
time (UTC)temp
F
wind
direction
speed
MPH
gust
MPH
rain 1hr
in
rain 24hr
in
rain mn
in
humidity
%
barometer
mb
20200403082412 40 114 0.0 0.0 0.00 0.00 0.00 87 1017.8
20200403081828 40 114 0.0 0.0 0.00 0.00 0.00 87 1017.7
20200403081352 40 114 0.0 0.0 0.00 0.00 0.00 88 1017.8
20200403080912 40 114 0.0 0.0 0.00 0.00 0.00 88 1017.9
20200403080326 40 114 0.0 0.0 0.00 0.00 0.00 88 1017.9
20200403075842 40 113 0.0 0.0 0.00 0.00 0.00 87 1017.9
20200403074831 41 114 0.0 0.0 0.00 0.00 0.00 87 1018.0
20200403074354 41 113 0.0 0.0 0.00 0.00 0.00 86 1018.0
20200403073902 41 114 0.0 0.0 0.00 0.00 0.00 87 1018.1
20200403073324 41 114 0.0 0.0 0.00 0.00 0.00 87 1018.1
20200403072842 41 114 0.0 0.0 0.00 0.00 0.00 87 1018.2
20200403072410 41 114 0.0 0.0 0.00 0.00 0.00 87 1018.2
20200403071831 41 114 0.0 0.0 0.00 0.00 0.00 87 1018.0
20200403071355 41 114 0.0 0.0 0.00 0.00 0.00 87 1017.9
20200403070913 41 114 0.0 0.0 0.00 0.00 0.00 86 1018.0
20200403070337 41 114 0.0 0.0 0.00 0.00 0.00 86 1018.0
20200403065823 41 114 0.0 0.0 0.00 0.00 0.00 86 1018.1
20200403065334 41 114 0.0 0.0 0.00 0.00 0.00 86 1018.1
20200403064821 41 114 0.0 0.0 0.00 0.00 0.00 86 1018.2
20200403064328 41 114 0.0 0.0 0.00 0.00 0.00 87 1018.2
20200403063829 41 114 0.0 0.0 0.00 0.00 0.00 87 1018.2
20200403063334 41 114 0.0 0.0 0.00 0.00 0.00 86 1018.2
20200403062838 41 114 0.0 0.0 0.00 0.00 0.00 86 1018.2
20200403062324 41 114 0.0 0.0 0.00 0.00 0.00 86 1018.2
20200403061830 42 114 0.0 0.0 0.00 0.00 0.00 86 1018.2
20200403061337 42 114 0.0 0.0 0.00 0.00 0.00 85 1018.2
20200403060822 42 114 0.0 0.0 0.00 0.00 0.00 85 1018.1
20200403060332 42 114 0.0 0.0 0.00 0.00 0.00 85 1018.1
20200403055839 42 113 0.0 0.0 0.00 0.00 0.00 84 1018.1
20200403055325 42 114 0.0 0.0 0.00 0.00 0.00 84 1018.1
20200403054848 42 114 0.0 0.0 0.00 0.00 0.00 84 1018.1
20200403054334 42 114 0.0 0.0 0.00 0.00 0.00 84 1018.1
20200403053821 42 114 0.0 0.0 0.00 0.00 0.00 84 1018.1
20200403053327 42 113 0.0 0.0 0.00 0.00 0.00 84 1018.1
20200403052834 43 114 0.0 0.0 0.00 0.00 0.00 83 1018.2
20200403052340 43 114 0.0 0.0 0.00 0.00 0.00 82 1018.2
20200403051835 43 114 0.0 0.0 0.00 0.00 0.00 82 1018.2
20200403051336 43 114 0.0 0.0 0.00 0.00 0.00 84 1018.1
20200403050836 43 114 0.0 0.0 0.00 0.00 0.00 83 1018.2
20200403050321 43 114 0.0 0.0 0.00 0.00 0.00 83 1018.1
20200403045836 43 113 0.0 0.0 0.00 0.00 0.00 84 1018.2
20200403045351 43 114 0.0 0.0 0.00 0.00 0.00 83 1018.2
20200403044909 43 114 0.0 0.0 0.00 0.00 0.00 83 1018.1
20200403044321 43 114 0.0 0.0 0.00 0.00 0.00 82 1018.1
20200403043840 43 114 0.0 0.0 0.00 0.00 0.00 82 1018.1
20200403043357 43 114 0.0 1.0 0.00 0.00 0.00 82 1018.1
20200403042914 44 114 0.0 0.0 0.00 0.00 0.00 82 1018.1
20200403042330 44 114 0.0 0.0 0.00 0.00 0.00 82 1018.1
20200403041828 44 114 0.0 0.0 0.00 0.00 0.00 81 1018.0
20200403041332 44 113 0.0 0.0 0.00 0.00 0.00 81 1018.1
20200403040844 44 114 0.0 0.0 0.00 0.00 0.00 81 1018.1
20200403035836 44 114 0.0 0.0 0.00 0.00 0.00 80 1018.0
20200403035346 44 114 0.0 0.0 0.00 0.00 0.00 81 1018.0
20200403034911 44 114 0.0 0.0 0.00 0.00 0.00 80 1018.0
20200403034332 44 114 0.0 0.0 0.00 0.00 0.00 79 1018.0
20200403033849 44 113 0.0 0.0 0.00 0.00 0.00 79 1018.0
20200403033408 44 114 0.0 0.0 0.00 0.00 0.00 79 1017.9
20200403032341 45 114 0.0 0.0 0.00 0.00 0.00 80 1017.9
20200403031857 45 113 0.0 1.0 0.00 0.00 0.00 79 1017.8
20200403031357 45 113 0.0 1.0 0.00 0.00 0.00 78 1017.9
20200403030917 45 114 0.0 0.0 0.00 0.00 0.00 78 1017.9
20200403030330 45 114 0.0 0.0 0.00 0.00 0.00 78 1017.9
20200403025845 45 114 0.0 0.0 0.00 0.00 0.00 78 1017.9
20200403024847 45 114 0.0 0.0 0.00 0.00 0.00 77 1018.0
20200403024403 46 113 0.0 0.0 0.00 0.00 0.00 76 1018.0
20200403023917 46 114 0.0 0.0 0.00 0.00 0.00 76 1018.0
20200403023332 46 114 0.0 0.0 0.00 0.00 0.00 77 1018.0
20200403022854 46 114 0.0 0.0 0.00 0.00 0.00 77 1017.9
20200403022415 46 113 0.0 0.0 0.00 0.00 0.00 77 1017.8
20200403021833 46 113 0.0 0.0 0.00 0.00 0.00 76 1017.9
20200403020833 46 114 0.0 0.0 0.00 0.00 0.00 76 1017.9
20200403020356 46 114 0.0 1.0 0.00 0.00 0.00 76 1017.9
20200403015338 46 260 0.0 0.0 0.00 0.00 0.00 76 1017.9
20200403014859 47 260 0.0 0.0 0.00 0.00 0.00 76 1017.9
20200403014421 47 113 0.0 0.0 0.00 0.00 0.00 75 1017.9
20200403013833 47 113 0.0 0.0 0.00 0.00 0.00 75 1017.9
20200403013345 47 116 0.0 0.0 0.00 0.00 0.00 75 1017.9
20200403012857 47 117 0.0 1.0 0.00 0.00 0.00 74 1017.9
20200403012416 47 117 0.0 1.0 0.00 0.00 0.00 74 1017.9
20200403011828 47 122 0.0 1.0 0.00 0.00 0.00 73 1017.8
20200403011348 47 122 0.0 1.0 0.00 0.00 0.00 73 1017.8
20200403010908 48 132 0.0 0.0 0.00 0.00 0.00 72 1017.7
20200403010324 48 132 0.0 1.0 0.00 0.00 0.00 72 1017.8
20200403005841 48 132 0.0 1.0 0.00 0.00 0.00 71 1017.8
20200403005357 48 113 0.0 1.0 0.00 0.00 0.00 70 1017.8
20200403004918 49 122 0.0 1.0 0.00 0.00 0.00 70 1017.8
20200403004327 49 77 0.0 2.0 0.00 0.00 0.00 70 1017.7
20200403003847 49 38 0.0 1.0 0.00 0.00 0.00 69 1017.7
20200403003400 49 134 0.0 1.0 0.00 0.00 0.00 68 1017.7
20200403002337 50 230 0.0 2.0 0.00 0.00 0.00 66 1017.8
20200403001900 50 133 0.0 2.0 0.00 0.00 0.00 64 1017.7
20200403001421 51 210 0.0 2.0 0.00 0.00 0.00 63 1017.7
20200403000832 52 68 0.0 0.0 0.00 0.00 0.00 61 1017.8
20200403000344 52 45 0.0 0.0 0.00 0.00 0.00 60 1017.8
20200402235900 53 45 0.0 1.0 0.00 0.00 0.00 58 1017.8
20200402235413 54 127 0.0 1.0 0.00 0.00 0.00 57 1017.8
20200402234833 54 212 0.0 4.0 0.00 0.00 0.00 56 1017.7
20200402234352 54 97 1.0 4.0 0.00 0.00 0.00 55 1017.7
20200402233339 55 108 0.0 3.0 0.00 0.00 0.00 54 1017.7
20200402232900 55 132 0.0 2.0 0.00 0.00 0.00 54 1017.7
20200402232420 56 149 0.0 3.0 0.00 0.00 0.00 54 1017.7
20200402231842 56 110 1.0 3.0 0.00 0.00 0.00 52 1017.7
20200402231409 56 123 1.0 3.0 0.00 0.00 0.00 52 1017.7
20200402230828 57 91 0.0 5.0 0.00 0.00 0.00 52 1017.6
20200402230341 57 147 1.0 4.0 0.00 0.00 0.00 51 1017.6
20200402225853 57 120 0.0 3.0 0.00 0.00 0.00 51 1017.6
20200402225417 56 118 0.0 3.0 0.00 0.00 0.00 50 1017.6
20200402224839 56 99 1.0 4.0 0.00 0.00 0.00 50 1017.6
20200402224402 56 108 0.0 5.0 0.00 0.00 0.00 48 1017.6
20200402223823 56 133 0.0 4.0 0.00 0.00 0.00 47 1017.6
20200402223350 56 144 1.0 4.0 0.00 0.00 0.00 48 1017.7
20200402222906 56 155 2.0 4.0 0.00 0.00 0.00 46 1017.7
20200402222326 57 136 2.0 6.0 0.00 0.00 0.00 45 1017.7
20200402221848 57 158 0.0 5.0 0.00 0.00 0.00 45 1017.7
20200402220840 58 178 3.0 7.0 0.00 0.00 0.00 43 1017.6
20200402220412 58 157 3.0 8.0 0.00 0.00 0.00 43 1017.7
20200402215828 58 155 3.0 7.0 0.00 0.00 0.00 44 1017.7
20200402215349 58 153 3.0 7.0 0.00 0.00 0.00 44 1017.7
20200402214912 58 177 2.0 6.0 0.00 0.00 0.00 45 1017.7
20200402214322 58 203 1.0 7.0 0.00 0.00 0.00 45 1017.7
20200402213850 58 153 3.0 7.0 0.00 0.00 0.00 46 1017.7
20200402213414 58 219 2.0 7.0 0.00 0.00 0.00 46 1017.6
20200402212831 58 150 4.0 7.0 0.00 0.00 0.00 44 1017.6
20200402212358 58 165 4.0 9.0 0.00 0.00 0.00 44 1017.5
20200402211915 59 141 5.0 9.0 0.00 0.00 0.00 43 1017.6
20200402211335 59 156 2.0 6.0 0.00 0.00 0.00 45 1017.6
20200402210840 59 129 2.0 5.0 0.00 0.00 0.00 44 1017.6
20200402210405 60 165 1.0 4.0 0.00 0.00 0.00 45 1017.7
20200402205822 60 193 2.0 7.0 0.00 0.00 0.00 45 1017.7
20200402205346 60 91 2.0 7.0 0.00 0.00 0.00 46 1017.6
20200402204347 60 150 1.0 8.0 0.00 0.00 0.00 46 1017.7
20200402203913 59 211 3.0 10.0 0.00 0.00 0.00 46 1017.7
20200402203325 59 177 4.0 10.0 0.00 0.00 0.00 45 1017.6
20200402202847 59 139 3.0 9.0 0.00 0.00 0.00 48 1017.7
20200402201846 59 119 4.0 9.0 0.00 0.00 0.00 48 1017.9
20200402200851 59 79 3.0 8.0 0.00 0.00 0.00 46 1017.9
20200402200414 58 151 4.0 9.0 0.00 0.00 0.00 47 1018.0
20200402195822 58 164 3.0 9.0 0.00 0.00 0.00 45 1018.0
20200402195344 58 174 3.0 8.0 0.00 0.00 0.00 46 1018.1
20200402194911 58 260 3.0 7.0 0.00 0.00 0.00 45 1018.2
20200402194326 59 172 4.0 7.0 0.00 0.00 0.00 45 1018.2
20200402193851 59 227 2.0 4.0 0.00 0.00 0.00 47 1018.1
20200402193414 58 142 2.0 8.0 0.00 0.00 0.00 46 1018.2
20200402192841 58 178 2.0 6.0 0.00 0.00 0.00 46 1018.2
20200402192406 58 56 1.0 7.0 0.00 0.00 0.00 49 1018.2
20200402191342 58 96 2.0 8.0 0.00 0.00 0.00 49 1018.4
20200402190342 58 324 3.0 9.0 0.00 0.00 0.00 49 1018.5
20200402185902 58 213 4.0 9.0 0.00 0.00 0.00 47 1018.6
20200402185322 58 87 1.0 6.0 0.00 0.00 0.00 50 1018.7
20200402184849 58 107 2.0 7.0 0.00 0.00 0.00 50 1018.8
20200402184411 57 178 3.0 7.0 0.00 0.00 0.00 51 1019.0
20200402183829 57 161 3.0 6.0 0.00 0.00 0.00 50 1019.0
20200402183348 57 245 2.0 8.0 0.00 0.00 0.00 52 1019.1
20200402182910 56 140 4.0 9.0 0.00 0.00 0.00 50 1019.1
20200402182322 56 222 3.0 8.0 0.00 0.00 0.00 51 1019.2
20200402181845 56 63 3.0 9.0 0.00 0.00 0.00 51 1019.3
20200402180844 56 163 2.0 6.0 0.00 0.00 0.00 53 1019.4
20200402180413 56 94 1.0 4.0 0.00 0.00 0.00 53 1019.4
20200402175835 56 170 1.0 6.0 0.00 0.00 0.00 51 1019.5
20200402175403 56 146 1.0 10.0 0.00 0.00 0.00 52 1019.6
20200402174824 55 253 3.0 10.0 0.00 0.00 0.00 54 1019.7
20200402174350 56 192 3.0 9.0 0.00 0.00 0.00 53 1019.7
20200402173913 55 251 3.0 9.0 0.00 0.00 0.00 54 1019.8
20200402173329 55 141 5.0 8.0 0.00 0.00 0.00 55 1019.8
20200402172849 54 148 2.0 8.0 0.00 0.00 0.00 57 1019.9
20200402172412 54 163 3.0 6.0 0.00 0.00 0.00 56 1019.9
20200402171834 54 264 1.0 6.0 0.00 0.00 0.00 56 1019.9
20200402171347 54 174 3.0 6.0 0.00 0.00 0.00 57 1020.1
20200402170909 53 14 1.0 5.0 0.00 0.00 0.00 59 1020.1
20200402170323 53 41 3.0 5.0 0.00 0.00 0.00 58 1020.3
20200402165850 53 104 1.0 6.0 0.00 0.00 0.00 58 1020.4
20200402165410 53 188 3.0 6.0 0.00 0.00 0.00 60 1020.4
20200402164906 52 283 3.0 6.0 0.00 0.00 0.00 60 1020.5
20200402164422 52 237 1.0 7.0 0.00 0.00 0.00 61 1020.7
20200402163833 52 213 3.0 7.0 0.00 0.00 0.00 60 1020.6
20200402163348 52 209 2.0 5.0 0.00 0.00 0.00 62 1020.7
20200402162906 51 233 1.0 3.0 0.00 0.00 0.00 64 1020.7
20200402162321 51 76 1.0 6.0 0.00 0.00 0.00 63 1020.7
20200402161848 51 163 4.0 6.0 0.00 0.00 0.00 62 1020.8
20200402160836 50 157 1.0 5.0 0.00 0.00 0.00 65 1020.7
20200402160358 50 139 3.0 5.0 0.00 0.00 0.00 64 1020.8
20200402155918 49 136 0.0 5.0 0.00 0.00 0.00 67 1020.7
20200402155328 49 133 1.0 6.0 0.00 0.00 0.00 67 1020.7
20200402154845 49 206 2.0 6.0 0.00 0.00 0.00 67 1020.7
20200402154406 49 175 2.0 5.0 0.00 0.00 0.00 69 1020.8
20200402153823 48 276 1.0 4.0 0.00 0.00 0.00 70 1020.7
20200402153339 48 210 1.0 4.0 0.00 0.00 0.00 72 1020.8
20200402152328 47 90 1.0 3.0 0.00 0.00 0.00 72 1020.9
20200402151852 47 97 0.0 3.0 0.00 0.00 0.00 73 1020.9
20200402151413 46 129 0.0 3.0 0.00 0.00 0.00 75 1021.1
20200402150827 46 149 0.0 1.0 0.00 0.00 0.00 76 1021.1
20200402150345 45 191 0.0 2.0 0.00 0.00 0.00 77 1021.1
20200402145855 45 122 1.0 2.0 0.00 0.00 0.00 78 1021.1
20200402144833 44 168 1.0 3.0 0.00 0.00 0.00 79 1021.2
20200402144350 44 261 0.0 1.0 0.00 0.00 0.00 81 1021.1
20200402143908 43 170 0.0 1.0 0.00 0.00 0.00 84 1021.1
20200402142834 42 42 0.0 3.0 0.00 0.00 0.00 86 1021.1
20200402142356 41 175 0.0 3.0 0.00 0.00 0.00 87 1021.1
20200402141352 40 52 0.0 2.0 0.00 0.00 0.00 90 1021.1
20200402140917 39 37 0.0 1.0 0.00 0.00 0.00 92 1021.1
20200402140332 39 282 0.0 2.0 0.00 0.00 0.00 96 1021.2
20200402135858 38 48 0.0 2.0 0.00 0.00 0.00 96 1021.3
20200402135321 38 244 0.0 1.0 0.00 0.00 0.00 97 1021.4
20200402134845 37 231 0.0 0.0 0.00 0.00 0.00 97 1021.4
20200402133842 35 233 0.0 0.0 0.00 0.00 0.00 97 1021.4
20200402132829 32 234 0.0 0.0 0.00 0.00 0.00 96 1021.5
20200402132346 31 233 0.0 0.0 0.00 0.00 0.00 96 1021.5
20200402131337 29 233 0.0 0.0 0.00 0.00 0.00 96 1021.4
20200402130855 29 233 0.0 0.0 0.00 0.00 0.00 96 1021.4
20200402130417 29 233 0.0 0.0 0.00 0.00 0.00 96 1021.3
20200402125826 28 234 0.0 0.0 0.00 0.00 0.00 96 1021.3
20200402125343 27 233 0.0 0.0 0.00 0.00 0.00 96 1021.2
20200402124857 27 233 0.0 0.0 0.00 0.00 0.00 96 1021.3
20200402123840 26 233 0.0 0.0 0.00 0.00 0.00 95 1021.1
20200402123342 26 233 0.0 0.0 0.00 0.00 0.00 95 1021.1
20200402122856 25 233 0.0 0.0 0.00 0.00 0.00 95 1021.1
20200402121830 25 233 0.0 0.0 0.00 0.00 0.00 95 1021.1
20200402121349 24 233 0.0 0.0 0.00 0.00 0.00 95 1021.1
20200402120915 24 233 0.0 0.0 0.00 0.00 0.00 95 1021.0
20200402120327 24 233 0.0 0.0 0.00 0.00 0.00 95 1021.0
20200402115848 24 233 0.0 0.0 0.00 0.00 0.00 95 1021.0
20200402115408 25 234 0.0 0.0 0.00 0.00 0.00 95 1020.9
20200402114827 25 151 0.0 0.0 0.00 0.00 0.00 95 1020.8
20200402114348 25 152 0.0 0.0 0.00 0.00 0.00 95 1020.9
20200402113915 24 152 0.0 0.0 0.00 0.00 0.00 95 1020.9
20200402113332 24 151 0.0 0.0 0.00 0.00 0.00 95 1020.9
20200402112848 24 152 0.0 0.0 0.00 0.00 0.00 95 1020.8
20200402111846 24 152 0.0 0.0 0.00 0.00 0.00 95 1020.7
20200402110831 25 152 0.0 0.0 0.00 0.00 0.00 95 1020.5
20200402110357 24 151 0.0 0.0 0.00 0.00 0.00 95 1020.5
20200402105916 24 152 0.0 0.0 0.00 0.00 0.00 95 1020.5
20200402105324 25 152 0.0 0.0 0.00 0.00 0.00 95 1020.4
20200402104841 24 152 0.0 0.0 0.00 0.00 0.00 95 1020.4
20200402104356 25 152 0.0 0.0 0.00 0.00 0.00 95 1020.3
20200402103919 25 151 0.0 0.0 0.00 0.00 0.00 95 1020.3
20200402103336 24 152 0.0 0.0 0.00 0.00 0.00 95 1020.2
20200402102904 24 151 0.0 0.0 0.00 0.00 0.00 95 1020.2
20200402102410 25 151 0.0 0.0 0.00 0.00 0.00 95 1020.2
20200402101828 25 152 0.0 0.0 0.00 0.00 0.00 95 1020.1
20200402101335 25 151 0.0 0.0 0.00 0.00 0.00 95 1020.0
20200402100846 25 151 0.0 0.0 0.00 0.00 0.00 95 1020.0
20200402095842 25 151 0.0 0.0 0.00 0.00 0.00 95 1019.9
20200402095402 25 151 0.0 0.0 0.00 0.00 0.00 95 1020.0
20200402094910 25 152 0.0 0.0 0.00 0.00 0.00 95 1019.9
20200402094335 26 152 0.0 0.0 0.00 0.00 0.00 95 1019.8
20200402093849 26 151 0.0 0.0 0.00 0.00 0.00 95 1019.8
20200402092833 25 152 0.0 0.0 0.00 0.00 0.00 95 1019.8
20200402092356 25 152 0.0 0.0 0.00 0.00 0.00 95 1019.7
20200402091349 25 152 0.0 0.0 0.00 0.00 0.00 95 1019.7
20200402090913 25 152 0.0 0.0 0.00 0.00 0.00 95 1019.7
20200402090329 25 152 0.0 0.0 0.00 0.00 0.00 95 1019.6
20200402085851 25 152 0.0 0.0 0.00 0.00 0.00 95 1019.6
20200402085416 25 152 0.0 0.0 0.00 0.00 0.00 95 1019.6
20200402084824 26 151 0.0 0.0 0.00 0.00 0.00 95 1019.6
20200402084342 26 152 0.0 0.0 0.00 0.00 0.00 95 1019.5
20200402083344 26 151 0.0 0.0 0.00 0.00 0.00 95 1019.6
20200402082906 26 152 0.0 0.0 0.00 0.00 0.00 95 1019.6